Other Public Products
Issued by NWS Charleston, SC

Current Version | Previous Version | Graphics & Text | Print | Product List | Glossary On
Versions: 1 2 3 4 5 6 7 8 9 10 11 12 13 14 15 16 17 18 19 20 21 22 23 24 25 26 27 28 29 30 31 32 33 34 35 36 37 38 39 40 41 42 43 44 45 46 47 48 49 50
482
FPUS82 KCHS 251912
OPUCHS

TEST...KCHS/KSAV Gateway Observations...TEST
National Weather Service Charleston SC
300 PM EDT TUE JUL 25 2017

NOTE: "fair" indicates few or no clouds below 12,000 feet with no
significant weather and/or obstructions to visibility.

SCZ050-WAZ558-NCZ071-TXZ119-213-PAZ071-DCZ001-FLZ074-172-MI076-
NYZ176-178-MAZ016-IL014-TNZ027-NJZ106-GAZ044-MD014-252000-

...Gateway Observations for Charleston International...

CITY           SKY/WX    TMP DP  RH WIND       PRES   REMARKS
Chas Airport   PTSUNNY   90  73  57 S5        30.04F HX  98
Seattle        MOSUNNY   76  53  44 NW8       30.04F
Charlotte      CLOUDY    92  65  40 N8        30.09S HX  94
Dallas DFW     MOSUNNY   93  74  53 S14       30.04F HX 103
Dallas Love    MOSUNNY   93  73  52 S9        30.05F HX 102
Philladelphia  CLOUDY    77  63  61 VRB6      30.09S
Wash National  PTSUNNY   79  62  56 NW10      30.11S
Baltimore      PTSUNNY   79  62  56 NW14      30.10S
Miami          RAIN      88  76  67 CALM      30.12S HX  99
Detroit        PTSUNNY   78  55  44 SE9       30.21F
Newark         CLOUDY    71  61  70 VRB3      30.11S
Laguardia      CLOUDY    68  60  75 NE10      30.12R
J F K          CLOUDY    71  62  73 NE3       30.12R
Boston Logan   CLOUDY    63  56  78 NE10      30.14R
Ft. Lauderdale PTSUNNY   90  78  68 SE13      30.10F HX 104
Chicago O`Hare MOSUNNY   80  56  43 S8        30.18F
Chicago Midway MOSUNNY   80  52  37 SE6       30.19S
Houston Bush   PTSUNNY   92  73  53 S12       30.09F HX 100
Houston Hobby  CLOUDY    92  75  57 SE14      30.09F HX 103
Nashville      PTSUNNY   92  68  45 VRB6      30.09F HX  96
Atlanta        PTSUNNY   88  74  63 VRB3      30.09F HX  96

$$

GAZ044-118-TXZ119-213-NCZ071-DCZ001-MDZ014-506-PAZ021-071-NJZ106-
NYZ176-178-MAZ106-OHZ011-021-055-MIZ076-KYZ091-ILZ014-INZ047-
MNZ060-ONZ431-252000-

...Gateway Observations for Savannah International...

CITY           SKY/WX    TMP DP  RH WIND       PRES   REMARKS
Savannah Arpt  PTSUNNY   92  73  53 SW8       30.05F HX 100
Atlanta        PTSUNNY   88  74  63 VRB3      30.09F HX  96
Charlotte      CLOUDY    92  65  40 N8        30.09S HX  94
Dallas DFW     MOSUNNY   93  74  53 S14       30.04F HX 103
Houston Bush   PTSUNNY   92  73  53 S12       30.09F HX 100
Wash National  PTSUNNY   79  62  56 NW10      30.11S
Wash Dulles    PTSUNNY   77  60  55 NW10      30.13S
Baltimore      PTSUNNY   79  62  56 NW14      30.10S
Philadelphia   CLOUDY    77  63  61 VRB6      30.09S
Newark         CLOUDY    71  61  70 VRB3      30.11S
Laguardia      CLOUDY    68  60  75 NE10      30.12R
J F K          CLOUDY    71  62  73 NE3       30.12R
Boston         CLOUDY    63  56  78 NE10      30.14R
Pittsburg      PTSUNNY   70  59  68 NW8       30.21R
Akron          PTSUNNY   74  56  53 CALM      30.21S
Cleveland      PTSUNNY   75  60  59 N12       30.23F
Cincinnati     MOSUNNY   80  59  48 E9        30.17F
Columbus       CLOUDY    73  59  61 E3        30.20F
Detroit        PTSUNNY   78  55  44 SE9       30.21F
Chicago O`Hare MOSUNNY   80  56  43 S8        30.18F
Minneapolis    CLOUDY    79  66  64 S16G22    29.97F
Indianapolis   MOSUNNY   78  57  48 E9        30.18R
Toronto Canada PTSUNNY   72  57  60 S8        30.20R

$$




USA.gov is the U.S. government's official web portal to all federal, state and local government web resources and services.